Wind_Speed
20 21 21 21 20 19 18 17 17 17 18 19 18 17 17 17 17 16 16 15 15 15 15 14 14 14 15 14 13 13 13 13 13 13 13 13 13 13 13 13 13 13 13 12 12 13 13 13 14 14 14 14 14 13 12 11 11 12 12 12 12 12 11 9 9 10 11 10 9 10 11 11 12 13 14 16 17 18 19 19 18 18 17 17 16
21 20 21 22 22 21 20 19 18 18 19 20 19 18 18 18 17 17 16 16 16 16 15 15 15 15 15 15 15 14 14 14 14 14 13 14 14 14 14 14 14 13 13 13 13 13 13 13 13 14 14 14 14 14 13 11 11 12 12 12 12 12 12 11 10 10 11 12 11 11 12 11 12 14 16 17 18 18 18 18 17 16 16 16 16
22 21 21 21 21 22 22 21 20 20 20 20 20 19 18 18 18 18 17 17 17 16 16 16 16 16 15 15 15 15 15 15 14 14 14 14 15 15 15 15 14 14 14 13 14 14 13 13 13 14 13 13 14 14 13 12 12 12 13 12 12 12 12 12 12 11 11 12 13 13 13 13 14 15 17 18 18 18 17 16 16 16 16 16 17
23 23 22 21 21 22 23 23 23 22 21 20 21 20 19 19 19 18 17 17 17 17 17 17 17 17 16 15 15 15 15 15 15 14 14 15 15 15 15 15 14 14 14 14 14 14 14 13 13 14 14 13 13 14 14 14 13 13 13 12 12 13 13 13 13 12 12 12 13 13 14 14 15 16 17 18 18 18 17 16 15 16 16 17 19
24 24 23 22 22 22 23 24 24 23 22 21 21 21 21 21 20 19 18 18 17 17 17 17 17 17 16 16 16 15 15 15 15 14 14 15 15 15 15 15 14 14 14 15 16 15 14 14 15 15 15 13 13 14 14 14 13 13 13 14 14 14 15 14 14 14 14 12 12 13 15 16 15 15 16 16 16 16 16 16 16 17 17 18 20
25 25 25 24 23 22 22 23 24 24 23 23 22 23 23 23 21 20 20 19 19 18 18 18 17 17 17 17 16 16 16 16 15 15 15 16 16 16 16 16 15 15 15 15 16 16 15 15 16 16 16 14 14 14 15 14 14 14 14 15 16 16 16 15 16 16 15 14 13 14 15 16 15 15 15 16 16 16 15 14 16 17 18 18 20
26 25 25 24 24 23 23 23 23 24 24 23 23 24 24 24 23 22 21 21 20 19 19 18 18 18 17 17 17 16 17 17 16 16 16 16 17 17 17 17 17 17 17 16 16 17 17 17 17 18 17 16 15 16 16 16 15 15 15 16 17 17 17 17 17 17 16 15 15 16 16 16 15 15 15 16 17 17 17 15 15 16 17 18 19
25 25 24 24 24 24 23 23 23 23 23 23 23 24 24 24 24 23 23 23 22 21 21 20 19 19 19 19 18 18 18 18 17 17 17 18 18 18 18 19 19 19 19 19 18 18 18 18 18 19 19 18 17 17 17 18 18 17 16 17 18 18 18 18 18 18 17 17 17 17 17 16 16 16 17 17 18 19 19 18 17 17 18 18 18
25 25 25 25 24 24 24 24 23 23 23 23 23 23 24 24 24 24 24 24 23 23 23 22 22 22 21 21 20 20 19 19 19 18 18 19 19 20 20 21 21 21 21 21 21 21 20 20 20 20 21 21 20 19 19 19 19 18 18 19 20 19 19 19 18 17 18 18 18 18 18 17 18 19 19 19 20 20 21 21 20 19 19 19 19
27 26 25 25 25 25 25 25 24 24 23 23 22 22 23 24 24 25 25 24 24 25 25 24 24 23 23 22 22 21 21 20 20 20 20 21 21 21 22 22 22 22 22 22 22 22 22 22 22 22 23 23 23 22 22 21 20 19 19 21 21 21 20 19 18 18 19 19 20 20 19 19 20 21 21 21 22 22 23 22 22 21 21 20 20
32 30 29 29 28 28 26 26 25 24 23 22 22 22 22 23 23 24 25 25 25 25 25 26 26 25 24 24 23 23 23 23 23 24 24 24 23 23 22 22 22 23 24 24 24 24 24 24 25 25 25 25 25 25 24 23 22 21 21 22 22 22 21 21 20 20 21 21 21 21 21 21 22 23 23 22 23 23 23 23 23 23 23 22 22
37 34 32 31 29 28 27 26 25 24 23 22 22 22 22 22 22 23 25 25 24 24 25 26 26 26 25 25 25 25 25 25 25 26 26 25 25 23 22 22 23 23 24 25 26 26 26 26 26 26 26 26 26 27 27 26 25 23 22 23 23 23 23 23 23 23 23 23 22 22 22 23 23 24 24 24 24 24 24 24 24 24 24 23 24
37 35 33 31 30 28 26 24 24 24 23 23 23 23 23 22 22 23 24 24 24 23 23 24 24 25 25 25 26 26 26 26 26 26 26 26 26 26 24 24 24 23 24 25 27 27 27 26 26 27 27 27 27 27 28 29 28 26 24 24 24 24 24 25 25 25 25 24 24 24 25 25 25 25 26 26 25 25 24 24 23 23 23 23 24
37 36 36 34 30 27 25 25 26 26 25 25 25 24 23 22 21 21 22 23 23 22 22 24 24 24 23 24 25 25 26 25 24 24 25 26 27 28 28 27 26 25 25 25 26 27 27 27 26 27 27 27 27 27 28 29 30 29 27 27 26 26 26 27 27 27 26 26 26 26 27 27 27 28 28 27 27 26 25 24 24 24 24 24 24
35 36 38 36 28 24 26 28 29 28 26 25 25 23 21 21 20 21 22 22 22 21 22 24 25 24 22 22 23 24 25 25 25 24 24 26 27 28 30 30 28 26 26 26 26 26 26 26 27 27 27 27 28 28 28 28 30 31 30 29 28 28 28 28 28 28 28 28 28 28 28 29 29 29 29 29 28 27 26 25 25 25 24 25 25
33 35 37 35 27 25 29 31 29 28 27 26 24 21 20 20 21 22 22 22 22 23 24 25 26 25 24 24 25 26 26 26 27 27 27 27 28 29 30 31 31 29 27 27 27 27 27 27 28 28 28 29 29 29 28 29 30 31 31 32 31 31 30 30 29 29 29 29 29 29 29 30 30 29 30 30 29 28 27 26 26 26 25 25 26
31 34 34 30 26 26 30 29 25 24 25 25 24 23 22 21 22 24 25 24 25 26 27 27 26 26 27 28 29 29 28 27 28 29 30 31 31 31 32 33 33 32 30 28 28 28 29 29 29 30 30 30 30 30 30 31 32 33 34 35 34 33 32 32 31 31 30 30 30 30 30 30 30 30 30 30 29 28 27 27 26 26 26 26 27
26 29 29 28 25 22 23 24 23 23 23 22 21 23 24 23 23 26 27 25 26 27 27 26 25 24 25 26 29 31 30 30 29 29 30 32 33 34 34 34 35 35 34 33 32 31 32 32 32 32 32 31 32 32 32 33 34 35 35 36 38 38 35 32 32 31 30 31 31 31 31 30 29 29 29 29 28 26 25 25 25 25 26 28 28
15 17 19 20 20 16 17 22 26 29 29 25 21 21 23 24 25 27 26 25 26 25 22 20 19 19 20 23 27 30 32 31 30 28 29 30 32 34 34 36 37 38 38 38 37 36 36 36 35 34 33 33 34 34 34 33 34 36 37 37 38 39 35 32 32 32 32 32 32 31 29 29 28 28 28 27 26 24 24 24 25 26 27 28 27
8 11 13 14 15 16 18 20 23 26 29 27 23 21 23 24 26 26 24 23 24 23 19 18 19 20 22 26 29 30 30 30 29 29 29 29 30 32 34 36 38 40 41 42 41 40 40 40 39 37 36 36 36 36 36 34 34 38 39 38 37 38 37 34 32 31 32 33 32 31 29 28 28 28 27 26 25 24 25 25 27 27 28 28 26
6 6 9 11 12 15 16 15 15 17 19 21 21 21 21 21 23 25 23 24 25 24 22 24 26 27 29 32 31 30 29 29 29 30 31 31 31 32 34 36 37 38 39 40 41 41 41 41 40 38 38 39 39 39 38 37 36 38 40 39 39 40 40 36 30 29 31 32 31 30 29 29 29 28 27 27 26 27 27 27 28 28 28 27 25
9 8 9 8 9 10 11 11 11 11 11 13 16 17 17 18 20 22 22 23 25 26 26 27 28 30 32 32 31 29 28 28 29 30 31 30 31 32 34 35 35 35 36 37 38 38 39 38 37 38 39 40 41 41 40 39 39 39 39 39 40 41 40 35 30 28 29 30 29 29 29 29 29 29 28 29 29 30 29 29 29 29 28 25 23
16 16 16 13 11 11 12 13 14 13 13 14 15 16 18 19 20 22 23 24 27 30 31 30 28 28 28 28 27 28 29 29 30 31 31 31 31 31 33 33 34 34 35 36 36 36 37 36 36 36 36 38 42 44 41 38 39 40 39 38 39 39 37 34 31 30 30 29 29 29 30 30 30 29 30 31 32 32 31 30 30 29 27 25 23
18 19 20 19 18 17 17 18 19 19 19 19 19 20 22 23 23 25 27 28 30 31 30 28 24 23 23 23 25 28 29 29 29 30 31 31 30 31 32 33 33 34 34 34 34 34 34 34 34 35 34 37 42 43 39 36 38 40 39 38 37 37 36 35 34 34 32 31 31 30 30 30 30 30 31 32 32 33 32 31 30 29 28 26 24
14 15 15 15 15 15 15 16 17 18 19 20 19 20 21 21 22 23 24 25 25 25 25 23 21 21 22 22 23 24 24 25 26 26 27 28 29 29 30 31 31 32 32 31 30 30 30 29 30 31 32 34 35 33 33 35 38 39 37 36 36 37 38 38 37 36 35 34 32 31 30 30 30 30 31 31 32 33 33 32 30 28 28 26 25
9 10 10 10 10 11 11 11 12 14 15 16 15 16 16 16 17 17 17 18 19 20 21 21 20 21 21 20 20 20 20 21 22 23 24 26 27 28 29 29 28 28 29 28 27 26 26 26 27 28 29 30 29 27 27 31 34 36 36 36 36 38 39 38 37 36 36 35 33 31 31 31 30 30 30 31 32 32 32 31 29 27 26 25 24
5 6 6 7 7 7 7 8 8 9 10 11 12 13 13 13 14 14 14 15 15 16 17 17 18 18 18 19 20 20 20 20 21 21 22 23 25 26 28 28 27 26 26 26 26 25 25 25 25 25 25 25 26 25 24 22 23 26 29 32 33 36 38 38 37 36 36 35 34 32 30 30 30 30 30 29 28 27 27 26 25 24 24 24 24
4 4 4 4 5 5 6 6 6 7 7 8 9 9 10 11 12 12 13 13 14 14 15 16 16 16 17 18 19 19 19 19 19 20 20 21 22 24 25 26 27 26 26 26 26 25 24 23 23 23 23 22 22 22 21 20 20 21 23 25 26 28 30 33 35 34 32 31 31 29 27 28 28 26 24 22 21 21 23 23 22 23 23 24 24
5 5 5 5 5 5 6 6 6 6 6 7 7 7 7 7 8 9 10 10 11 12 13 14 14 15 16 16 17 18 18 18 19 19 20 20 21 22 23 24 24 25 26 25 25 25 24 22 20 20 21 21 21 21 21 21 21 21 21 21 21 19 20 24 27 29 27 26 25 25 25 26 24 21 19 19 20 21 22 23 23 24 24 24 24
5 6 6 6 7 7 7 7 7 7 8 8 8 7 7 7 8 8 8 9 9 10 11 11 12 13 13 14 15 16 16 16 17 18 18 19 20 21 22 23 23 23 23 23 23 23 22 21 20 20 20 20 20 20 20 21 21 21 20 20 19 18 17 18 21 23 23 23 23 23 24 24 22 20 21 22 23 23 23 24 24 24 24 24 25
6 7 7 7 8 8 8 8 9 9 9 9 10 9 9 10 10 10 11 11 11 10 10 11 11 12 12 13 13 14 15 15 16 16 16 16 17 18 20 20 21 21 22 22 23 22 21 20 19 18 18 17 17 17 17 17 18 18 18 17 17 16 16 16 17 18 19 19 20 21 21 22 22 23 24 24 24 24 24 24 24 24 25 25 25
9 9 9 9 10 10 11 11 11 11 10 11 11 11 11 11 11 12 12 13 13 12 12 12 12 12 11 11 12 13 13 14 14 15 15 15 16 17 17 18 18 18 18 19 21 22 22 21 20 19 17 15 15 15 15 15 16 16 16 16 15 15 15 15 16 17 18 19 20 21 23 23 24 25 26 25 25 25 25 26 26 26 26 26 26
14 13 13 13 13 12 12 13 13 14 14 14 13 13 13 13 13 13 13 13 13 13 14 14 13 13 12 12 12 12 12 13 13 13 13 14 14 15 15 16 16 16 16 17 17 19 20 20 21 21 20 18 15 14 14 14 15 15 16 16 16 17 17 18 18 19 20 22 23 24 25 25 26 26 26 26 25 26 27 28 28 28 28 28 28
18 17 17 18 17 16 15 15 14 15 15 16 16 16 15 15 15 14 14 14 14 15 15 16 16 16 15 15 15 15 15 15 15 14 14 14 14 14 14 14 15 15 15 16 16 17 17 18 19 20 21 20 19 17 16 15 14 15 15 16 17 17 18 19 21 22 23 24 25 26 26 26 26 27 27 27 28 28 29 29 29 29 29 29 29
19 19 20 20 21 20 20 19 18 17 17 17 17 17 16 16 16 16 15 15 16 16 17 17 18 18 18 17 18 18 18 18 18 18 17 17 16 16 15 15 15 15 15 15 16 16 17 17 18 19 20 20 20 20 19 18 17 16 16 17 18 19 20 22 23 25 25 25 26 26 27 27 28 28 29 29 30 30 30 30 30 30 30 29 30
21 21 22 22 22 22 21 21 21 21 20 20 19 19 18 18 18 18 18 18 18 18 18 18 19 19 19 18 18 19 19 20 20 20 20 19 19 19 18 17 17 16 16 16 17 18 18 18 18 18 18 19 20 20 21 22 21 21 20 20 20 21 22 24 25 26 26 27 27 28 28 28 29 29 30 30 30 30 30 30 31 31 31 31 32
22 23 23 23 24 24 23 23 23 22 22 22 22 22 22 21 21 20 20 20 21 21 21 22 22 23 22 21 21 20 20 20 20 20 21 21 21 21 22 21 21 20 19 18 17 18 19 20 19 19 19 19 19 20 21 22 23 24 25 24 24 24 24 25 25 26 27 27 28 28 29 29 30 30 30 31 31 31 31 32 32 33 33 34 34
24 24 25 25 25 26 26 25 25 24 24 23 23 23 23 23 23 23 22 23 23 23 24 24 24 25 24 23 22 22 21 21 21 21 21 21 22 22 23 23 24 24 24 23 22 21 20 19 19 18 18 18 18 19 20 21 22 23 25 26 26 26 26 26 27 27 28 29 29 30 31 31 32 32 32 33 33 33 34 34 34 34 35 35 35
26 26 26 26 27 27 27 27 27 26 26 26 25 24 24 23 23 24 24 24 25 26 26 27 26 25 25 25 24 23 23 22 22 22 22 22 22 23 23 24 24 25 25 26 26 27 26 25 24 23 22 21 20 19 19 19 20 22 23 24 26 27 27 28 28 29 29 30 30 31 32 32 33 33 33 34 34 34 34 34 35 35 35 35 36
26 26 26 27 27 27 27 28 28 28 28 28 28 28 27 26 25 25 25 25 26 27 28 29 29 28 28 27 26 26 25 25 25 25 25 25 24 25 25 25 25 26 26 26 27 27 28 29 30 30 30 30 29 28 27 26 25 25 25 25 25 25 26 27 28 29 30 31 31 31 32 32 33 33 33 34 34 34 35 35 35 35 36 36 36
27 27 28 28 28 28 28 28 28 29 29 29 29 29 28 28 27 26 26 26 26 27 28 29 30 31 31 31 30 30 29 29 29 28 28 28 28 28 28 28 28 28 28 28 28 28 28 29 29 30 31 31 32 32 33 33 33 33 33 33 32 31 29 29 29 29 30 30 31 31 31 32 32 33 33 34 34 35 35 36 36 36 37 38 38
28 28 29 29 30 30 30 30 30 30 30 30 30 30 29 29 28 28 28 28 28 29 29 30 31 32 33 33 33 33 33 33 32 32 32 31 31 30 30 30 31 31 31 30 30 30 30 30 29 30 30 30 31 31 31 32 33 34 35 36 37 37 37 37 37 37 37 36 35 34 33 33 33 33 33 34 35 35 36 37 37 38 38 39 39
28 28 29 29 30 30 30 30 30 30 30 30 31 31 31 30 29 29 29 29 29 30 31 32 33 34 34 34 35 35 36 36 36 36 35 34 33 33 33 33 33 33 33 34 33 32 32 31 31 31 30 30 30 31 31 31 32 32 33 33 34 35 36 38 39 40 42 42 42 42 41 40 39 38 38 37 37 38 38 39 39 40 40 40 40
28 28 29 29 29 29 30 30 31 31 32 32 33 33 33 33 33 32 32 31 31 32 32 33 33 34 35 36 36 37 37 37 37 37 37 36 36 35 35 35 35 35 35 35 35 35 34 34 33 33 32 31 31 31 31 31 32 32 33 33 33 34 34 35 36 36 37 38 39 40 41 41 41 41 41 40 40 40 40 41 41 42 42 41 41
28 28 28 28 28 28 28 28 29 30 31 31 31 31 32 32 32 32 32 32 32 32 32 32 32 33 33 34 34 34 34 34 34 34 35 36 36 36 36 36 36 36 36 36 36 36 35 34 34 33 33 33 32 32 32 31 31 32 32 33 33 33 33 34 34 35 35 36 36 37 37 37 38 38 38 39 39 39 40 40 41 41 41 41 40
27 27 26 26 26 26 26 26 27 27 27 27 28 28 28 28 29 29 30 30 31 31 31 31 30 30 29 29 30 31 32 33 33 34 34 34 35 36 36 36 36 36 36 36 36 36 35 34 34 33 33 33 33 33 33 32 32 32 32 32 32 33 33 33 34 34 34 35 35 35 35 35 35 36 36 36 37 37 38 38 38 39 38 38 38
23 24 24 24 24 24 25 25 25 26 26 26 26 26 26 26 26 27 27 28 29 30 30 30 30 30 30 30 31 33 34 35 35 36 36 36 36 36 36 35 35 35 35 35 35 35 35 35 35 35 35 34 33 33 33 32 32 32 32 32 32 32 32 33 33 34 34 34 34 34 34 34 34 35 35 35 35 36 36 36 36 36 36 36 36
22 22 22 23 23 23 24 24 24 25 25 25 26 26 25 25 25 26 26 27 28 28 26 25 25 26 26 26 27 28 29 29 31 32 33 35 36 37 37 36 35 35 34 34 34 35 35 36 36 36 36 35 35 34 33 33 32 32 32 32 33 33 33 33 33 33 33 33 34 34 34 34 34 34 34 34 34 35 35 35 35 35 35 35 35
22 22 22 22 22 22 23 23 23 23 24 25 25 26 26 26 27 28 29 29 29 28 26 24 23 23 23 24 24 25 25 25 26 28 29 30 32 33 34 34 34 34 34 34 34 35 35 35 35 36 36 36 37 36 35 34 33 32 32 32 32 32 32 32 32 32 33 33 33 33 33 33 34 34 34 34 34 34 34 34 34 34 34 34 34
21 21 21 21 21 21 22 22 22 22 23 24 24 25 26 27 28 29 29 29 29 28 26 25 25 25 26 26 25 25 26 28 28 28 29 29 30 31 32 33 34 34 34 35 35 35 35 35 35 36 37 37 37 37 36 35 34 34 33 33 32 32 32 32 32 32 32 32 32 32 32 32 33 33 33 33 33 34 34 33 33 33 33 33 33
20 20 20 20 20 20 21 21 21 22 23 23 24 25 26 27 28 29 30 30 30 29 28 28 28 28 28 28 28 29 31 32 33 32 31 31 32 32 33 34 35 35 35 36 36 36 35 35 35 36 37 37 36 36 35 34 34 33 33 33 33 33 32 32 32 32 32 31 31 31 31 31 32 32 32 32 32 33 33 32 32 32 32 32 31
Wind_Direction
225 225 225 227 227 227 228 227 226 225 225 226 227 227 226 226 227 229 229 231 233 234 232 231 232 232 231 232 232 233 235 235 237 239 240 241 241 242 244 248 250 252 255 256 256 255 253 252 251 250 251 252 255 259 263 267 272 273 271 269 270 274 274 273 272 275 279 281 286 292 297 301 303 303 304 304 306 309 310 311 313 314 314 317 320
228 227 227 227 227 227 228 228 228 227 226 227 229 229 228 226 226 227 227 229 232 234 234 234 233 232 231 232 233 234 236 238 239 240 241 243 243 243 244 247 250 252 254 256 257 256 254 252 251 250 249 249 254 259 261 263 267 269 269 268 272 276 277 279 278 277 283 289 292 295 298 302 302 301 301 302 304 306 308 309 312 313 314 318 320
231 230 229 228 228 227 227 227 228 228 228 228 229 229 228 227 227 227 226 228 230 232 234 235 235 235 233 234 236 236 237 238 240 241 242 244 246 247 248 251 253 255 255 255 257 259 258 254 252 252 250 249 253 258 259 259 261 264 266 267 271 276 279 283 283 280 281 286 291 295 300 301 300 298 298 300 303 306 308 311 313 313 314 317 318
233 232 230 230 230 229 227 227 227 228 229 230 231 230 229 228 228 227 226 228 230 232 234 235 236 237 237 237 239 240 239 239 241 243 245 248 251 252 253 254 255 257 258 257 257 259 260 257 254 254 252 250 251 255 257 258 261 264 268 269 269 271 274 277 277 275 276 279 284 290 293 293 292 292 295 300 306 308 310 313 314 314 315 317 316
233 233 232 231 231 230 229 227 227 229 229 230 231 231 232 231 230 229 229 230 232 232 233 235 237 238 239 240 240 241 242 242 244 247 251 253 254 255 256 256 255 256 259 260 260 260 259 258 257 257 257 254 253 255 256 258 263 266 269 272 273 272 273 275 274 274 277 279 280 284 286 285 285 289 296 304 307 307 309 312 314 314 315 315 314
230 232 232 231 230 231 229 227 227 229 230 230 230 231 232 233 231 230 230 231 233 234 233 233 236 239 240 241 241 241 242 244 246 248 251 253 254 255 256 257 257 256 256 258 260 260 258 258 258 260 260 259 256 257 259 261 263 267 270 272 273 273 274 275 276 277 280 281 280 281 281 281 284 290 298 304 306 306 308 309 311 312 313 312 312
229 230 232 232 231 231 230 229 228 229 230 231 230 231 232 233 232 231 230 231 232 233 234 234 235 238 239 240 241 242 243 245 247 248 250 253 254 255 256 257 258 256 254 254 256 257 258 259 259 261 261 260 258 259 263 265 265 266 268 269 270 271 274 276 277 277 277 277 279 281 282 283 285 289 295 300 303 306 308 309 309 309 309 309 308
229 228 230 232 233 234 234 233 231 231 232 233 233 233 233 234 235 234 234 233 232 232 233 234 235 237 239 239 240 242 244 246 249 250 252 254 255 256 257 258 259 259 258 257 256 256 257 259 261 263 263 262 259 259 261 264 265 265 266 266 267 271 276 278 278 277 274 274 278 283 287 288 288 290 294 298 301 306 309 310 309 306 305 307 306
230 229 230 232 235 236 237 236 235 234 235 235 235 235 235 236 237 237 238 238 236 235 235 234 235 237 240 241 241 242 245 247 250 252 252 254 256 256 256 257 259 261 260 260 260 261 260 259 260 262 264 264 262 262 262 263 266 267 269 269 271 275 278 279 278 275 273 275 281 286 288 288 288 290 294 298 301 305 307 308 307 306 306 308 309
227 227 228 230 234 236 237 236 235 235 235 236 237 237 238 238 239 239 240 240 240 240 240 239 237 237 239 241 242 243 244 246 249 250 249 248 249 251 254 257 260 261 261 260 260 261 261 261 260 259 261 263 264 264 264 265 268 269 271 273 274 276 277 277 276 274 274 279 285 286 286 285 286 289 293 297 301 303 305 306 307 305 304 305 306
225 224 224 226 228 230 232 233 234 234 235 235 236 237 238 240 241 242 242 242 243 243 244 245 244 244 243 243 244 244 244 245 246 247 247 245 244 246 250 256 260 261 262 260 257 257 259 260 261 260 261 263 265 266 266 267 267 268 271 274 274 274 276 276 276 275 277 280 281 281 281 282 285 288 292 295 298 300 303 305 306 305 303 303 301
226 225 226 229 233 232 229 227 228 231 233 234 235 235 238 240 242 242 242 242 243 245 246 249 250 251 251 249 249 250 249 249 250 250 251 252 252 251 252 255 258 259 260 259 257 254 255 257 260 262 263 264 265 268 269 269 268 268 271 273 272 271 271 272 274 275 277 278 277 277 279 282 285 288 290 293 295 297 300 303 305 305 305 304 301
234 231 228 230 235 239 237 230 227 229 229 229 230 230 232 237 240 241 241 241 242 244 247 249 251 253 255 255 254 254 254 254 256 256 256 257 258 258 255 254 254 255 257 258 257 255 254 254 256 260 263 264 265 267 269 270 269 268 268 269 269 268 267 268 270 272 274 275 276 278 280 282 284 285 287 290 292 295 297 300 302 303 305 306 303
243 243 237 232 230 234 237 233 228 228 226 225 228 228 229 233 236 238 240 240 240 242 244 245 246 246 249 253 255 257 259 260 260 258 256 255 257 259 258 255 254 253 255 257 258 257 255 253 254 257 261 264 264 264 266 268 268 266 264 264 265 264 263 264 267 269 271 272 274 276 279 281 282 283 285 288 290 292 293 294 296 299 302 303 303
242 243 241 237 231 230 236 232 223 221 223 223 227 229 228 229 231 232 235 237 239 242 245 247 248 247 247 251 254 257 259 261 261 259 255 254 257 260 261 261 261 259 258 259 259 257 255 253 254 256 260 262 263 263 263 264 265 265 262 261 260 260 261 262 264 267 268 270 272 274 276 278 280 281 284 287 288 289 289 290 292 295 297 299 300
241 240 237 234 230 231 238 234 221 217 219 221 224 228 228 228 228 229 231 234 238 241 245 250 256 258 257 255 253 254 256 259 261 261 259 257 257 260 263 264 265 264 263 263 262 259 257 255 255 256 257 259 261 262 261 261 261 262 262 260 258 257 259 261 263 265 267 269 271 274 276 278 279 281 283 285 286 286 286 288 290 292 294 295 296
246 243 240 238 237 234 230 226 222 221 221 222 224 226 227 226 227 231 235 237 241 243 244 247 252 257 260 260 259 260 260 259 260 262 262 261 259 259 261 263 264 264 264 264 263 262 261 259 259 259 258 260 262 262 262 261 260 260 261 261 260 258 258 260 262 264 267 271 273 276 278 279 280 281 282 284 285 286 286 288 290 292 293 293 294
253 250 249 245 240 227 212 213 225 232 231 231 230 229 229 227 228 233 236 239 243 246 248 250 253 257 262 263 263 263 263 262 262 263 264 263 261 258 259 260 261 262 263 264 263 263 263 263 262 262 262 264 264 263 262 260 259 260 261 260 261 260 259 260 262 264 267 270 273 275 278 279 280 280 281 282 283 284 285 288 291 293 294 294 295
255 250 249 243 234 226 220 225 234 236 237 241 242 237 236 234 234 239 243 244 246 250 253 255 257 259 262 264 263 263 264 263 262 262 262 263 262 260 259 260 261 262 263 264 264 264 264 264 264 263 264 264 264 263 263 260 260 263 262 259 259 260 259 258 261 264 267 270 272 274 275 277 278 279 280 280 280 282 284 288 293 295 296 297 297
239 235 235 234 232 239 242 239 240 241 241 242 243 240 238 237 234 239 249 254 255 255 253 253 256 257 258 261 263 263 264 263 262 260 260 261 262 262 262 262 261 261 261 263 264 264 264 264 264 263 263 263 263 263 262 261 261 263 262 259 261 265 266 263 261 263 267 270 272 274 275 275 277 279 278 276 276 280 285 289 293 296 298 299 298
213 228 228 231 234 238 238 234 239 246 242 240 241 240 240 238 231 235 249 259 259 259 255 255 260 264 263 262 261 260 262 264 265 264 263 263 263 263 263 264 265 265 265 265 265 265 265 266 266 266 264 263 262 260 260 260 259 258 257 258 261 265 267 267 264 263 266 268 270 272 274 275 277 277 275 274 277 281 285 288 291 295 297 297 296
191 193 199 220 236 239 241 238 244 252 251 252 252 247 244 244 240 245 256 261 262 267 269 266 265 265 265 264 263 261 262 264 266 266 266 265 264 263 262 263 266 267 267 266 266 266 266 267 268 268 267 265 263 260 258 257 255 251 251 255 257 259 263 266 266 263 263 265 268 271 273 275 276 276 275 277 281 284 285 287 290 293 294 293 291
195 195 198 207 217 225 235 239 243 248 252 258 259 252 248 247 246 250 255 255 258 268 275 275 271 267 266 267 266 266 266 266 267 268 268 266 264 265 265 265 265 265 266 267 267 267 268 268 268 268 269 268 265 259 256 257 256 253 254 255 255 257 261 265 266 264 263 264 267 268 270 273 274 275 277 281 284 285 285 286 287 288 288 287 285
201 207 212 216 220 225 229 231 234 237 241 246 249 249 248 249 250 252 255 256 259 264 270 273 274 272 272 271 271 270 268 267 266 267 268 269 268 268 268 269 269 269 268 269 269 270 270 270 270 269 268 269 265 256 248 252 256 255 258 260 259 261 265 265 263 262 262 264 267 267 269 271 272 274 278 283 286 287 285 284 282 282 281 281 281
202 210 215 220 224 227 228 230 233 236 240 243 246 249 252 254 256 258 259 261 263 265 267 266 264 263 264 268 272 273 270 267 267 267 269 272 273 273 272 273 274 274 273 272 271 272 272 272 272 270 268 270 271 260 246 246 249 252 257 261 261 262 263 260 258 258 260 262 264 264 267 268 269 272 278 283 287 287 284 280 276 274 274 276 277
191 197 204 212 219 224 230 237 240 243 247 250 253 257 260 261 262 263 263 264 266 267 269 268 264 262 262 265 271 272 270 269 270 270 270 272 274 277 278 278 277 275 273 273 273 274 276 275 273 272 269 270 274 269 256 250 250 253 258 260 259 261 261 259 257 258 260 261 260 261 263 265 266 270 276 281 285 283 277 272 270 270 273 276 278
193 196 200 208 216 225 233 240 245 251 256 260 263 266 267 269 269 268 267 269 270 271 272 272 272 271 269 270 273 274 274 274 273 272 272 272 274 277 279 279 278 275 271 271 272 275 279 279 276 274 271 269 270 271 268 262 258 257 258 258 259 260 260 258 257 258 260 263 262 261 260 260 263 267 272 277 281 277 268 262 264 268 273 277 279
218 219 219 220 223 228 233 238 246 252 257 261 268 272 275 278 280 279 277 275 273 273 273 273 275 276 277 278 280 281 283 283 281 279 278 278 278 280 280 279 279 278 275 273 273 274 276 277 276 273 271 269 267 266 266 266 267 267 266 265 264 261 258 256 255 257 261 264 263 260 258 259 263 266 267 271 274 270 263 260 263 267 270 274 277
239 242 248 249 249 247 245 244 247 250 256 263 268 273 280 285 289 291 291 286 282 279 276 275 276 278 281 283 285 287 288 289 289 288 287 287 286 286 286 284 283 283 281 279 277 275 274 273 270 267 266 266 265 263 264 266 269 271 271 270 269 266 258 252 252 255 261 264 264 263 264 266 267 266 262 261 262 261 261 262 265 268 270 274 277
243 245 249 252 255 259 261 261 260 260 264 269 273 279 289 294 298 303 305 303 298 292 286 284 283 283 284 286 288 291 293 293 294 293 292 292 290 289 288 288 287 287 286 284 280 275 271 268 265 261 260 262 263 263 265 267 267 268 268 267 267 266 261 255 254 258 261 263 263 263 264 264 264 261 259 259 259 260 262 265 268 271 274 277 280
251 246 246 248 251 255 259 261 265 267 269 273 278 284 290 294 298 303 306 308 308 306 300 296 291 288 288 289 288 289 291 291 293 293 293 291 290 288 288 287 286 286 287 286 283 278 272 266 260 253 251 253 255 259 262 263 263 263 263 264 265 266 266 263 261 260 259 259 259 259 260 261 261 260 260 260 261 263 266 268 271 275 278 280 283
281 270 263 259 256 257 258 261 266 269 273 277 281 286 291 294 295 297 300 302 304 305 303 300 295 293 292 293 292 292 292 290 290 290 290 288 287 286 286 285 286 287 288 288 287 284 279 273 266 257 248 244 246 252 256 259 262 262 262 262 263 263 262 261 259 258 258 258 258 259 260 260 260 260 261 262 265 267 270 273 276 278 281 283 285
293 290 286 281 276 272 270 269 270 272 274 277 281 285 289 290 289 291 294 295 296 297 296 295 293 292 292 292 292 292 292 293 293 292 293 294 293 292 290 288 288 290 293 295 295 293 288 283 279 273 265 259 259 261 262 263 264 264 264 263 261 260 259 257 256 255 255 256 258 260 260 261 263 264 266 268 271 273 275 277 280 282 283 285 286
292 292 291 290 289 288 286 283 280 277 276 276 279 282 284 285 283 283 284 286 288 290 292 293 293 293 293 293 293 292 292 294 295 296 297 299 300 300 299 298 297 296 298 302 305 304 297 291 287 285 281 276 274 273 274 273 269 265 264 264 261 260 259 258 259 259 259 261 262 264 266 268 270 272 273 275 275 277 278 280 282 283 285 286 286
286 287 286 286 286 287 288 289 289 287 285 282 280 279 278 279 280 280 280 281 282 284 286 289 290 290 292 293 293 294 294 295 296 297 298 299 300 300 300 300 300 299 299 300 302 305 306 303 297 292 289 286 283 279 278 277 273 267 264 261 258 257 257 257 259 262 264 265 266 268 270 272 273 274 275 277 278 279 281 283 285 286 287 287 287
280 281 282 283 283 284 284 285 286 288 288 288 286 284 281 278 277 278 279 281 282 282 284 285 285 286 287 289 291 292 293 294 295 296 296 296 297 297 297 299 300 300 299 296 291 289 292 297 299 297 292 289 287 284 282 280 279 277 273 268 263 261 260 260 261 264 266 268 269 271 272 274 275 277 279 280 282 284 285 287 289 289 290 290 290
277 278 279 280 282 283 283 284 284 284 283 284 284 285 285 283 280 279 277 278 279 280 281 283 284 285 286 287 288 288 288 289 289 290 290 291 292 293 293 294 295 295 296 296 292 285 280 279 283 286 286 284 280 279 277 276 277 278 277 276 274 272 270 269 269 270 271 274 275 277 279 280 282 283 285 286 287 288 289 290 291 292 292 293 293
273 273 274 276 278 280 282 282 283 283 282 281 280 279 278 279 280 280 280 280 281 281 281 282 283 284 285 286 287 287 287 287 286 286 286 287 289 290 290 290 290 289 289 288 287 286 282 277 274 274 275 276 277 277 277 278 277 277 277 276 277 277 277 277 278 278 279 280 281 283 284 285 286 287 288 289 290 291 291 292 292 293 293 294 295
273 273 273 273 274 276 277 279 280 280 280 280 279 277 275 275 276 278 280 282 283 284 284 284 283 283 284 284 284 284 284 284 284 285 286 287 288 288 288 288 287 287 286 285 283 282 281 279 277 274 273 273 273 275 277 279 281 282 283 283 283 283 283 284 284 284 284 285 285 286 287 288 288 289 289 290 290 291 291 292 293 293 293 294 294
276 276 275 274 273 273 274 275 276 276 276 277 277 277 278 277 277 276 277 278 280 281 283 284 284 284 284 283 282 281 280 281 282 283 284 286 287 288 288 289 288 287 286 285 283 282 280 279 279 278 278 277 276 276 276 276 276 277 279 281 284 287 289 290 290 290 290 290 290 290 290 290 290 291 291 291 291 292 293 293 294 294 294 294 294
278 277 277 276 274 273 272 271 271 272 273 274 275 276 278 278 278 277 276 276 277 278 279 280 282 283 283 282 281 280 279 280 280 281 282 283 285 286 288 289 290 289 288 286 284 283 282 282 281 281 281 281 281 281 280 279 278 277 276 276 276 278 280 283 287 290 292 293 294 294 294 294 293 293 294 294 295 295 296 296 296 296 296 296 296
280 279 277 276 275 274 273 271 270 269 270 271 273 274 275 276 277 276 276 276 276 277 277 277 278 279 280 280 280 280 280 280 280 280 281 282 283 284 286 287 288 289 289 288 286 284 283 282 282 282 282 282 283 283 283 282 282 281 281 281 280 278 276 276 276 279 282 284 287 289 291 292 293 294 294 296 297 297 298 298 298 297 297 297 296
280 279 277 275 274 274 273 272 270 268 267 268 269 270 271 273 275 275 275 275 275 275 276 276 276 276 277 277 278 278 279 279 279 279 279 280 280 281 283 285 286 287 287 287 286 285 284 283 281 281 280 280 281 281 281 282 282 282 282 282 282 282 281 280 278 278 279 280 280 281 283 284 285 287 289 291 293 295 296 297 297 297 297 297 297
280 279 278 276 275 274 273 272 270 269 268 268 268 269 270 271 271 271 271 272 273 274 275 275 275 276 277 277 278 278 278 278 278 277 278 279 280 280 282 283 284 285 285 284 283 283 282 282 282 281 282 282 282 281 281 281 281 281 282 281 281 281 282 282 282 283 283 283 283 283 284 284 284 285 287 288 290 291 293 294 295 295 295 296 296
283 282 282 281 279 277 275 273 272 271 271 270 271 272 272 272 271 270 270 270 270 271 273 275 276 277 278 279 280 280 280 281 281 281 280 280 280 281 281 282 282 282 282 281 280 279 279 280 281 281 282 282 282 282 282 281 281 281 280 280 280 280 280 280 280 281 281 282 283 284 285 286 286 286 287 287 288 288 289 289 290 290 291 291 292
287 287 287 287 286 284 281 279 277 275 273 272 273 273 274 274 273 272 270 269 268 268 269 271 272 274 276 277 278 279 280 283 284 285 284 283 283 281 280 279 279 278 277 276 276 277 278 279 281 282 282 282 282 282 282 282 282 281 280 280 280 279 279 279 279 279 279 280 280 281 282 282 283 283 283 283 284 284 284 285 285 286 287 288 288
292 291 291 290 290 289 288 286 284 281 279 277 276 275 273 272 272 272 271 271 270 269 268 267 268 269 272 274 277 280 282 283 285 286 286 285 284 282 279 277 275 274 272 272 273 275 277 279 281 283 283 284 284 284 283 283 282 282 282 282 281 281 280 280 280 280 280 280 281 281 281 281 281 281 281 282 282 283 283 284 285 285 286 287 288
296 295 294 293 292 291 290 289 288 286 285 283 281 278 275 271 269 270 270 270 270 271 273 274 273 272 273 274 276 278 280 282 283 284 284 283 282 280 278 276 275 274 273 273 273 274 276 279 282 283 285 286 287 287 287 286 285 284 283 283 282 282 282 282 282 282 282 282 282 282 282 282 283 283 283 283 284 284 285 285 286 286 287 287 288
295 295 295 294 292 291 290 288 287 285 284 283 281 279 276 272 270 269 269 269 269 271 275 278 276 273 273 275 278 279 280 280 281 282 282 283 283 282 280 279 278 278 278 277 277 277 278 280 282 283 285 286 288 288 288 288 287 286 285 284 284 283 283 283 283 283 283 283 283 283 283 283 284 284 285 285 286 286 287 287 287 287 288 288 289
294 294 294 293 292 290 289 287 285 283 281 280 279 277 275 273 271 270 269 269 269 269 270 271 271 271 273 276 279 279 278 277 277 279 280 281 282 282 282 282 281 281 281 280 280 280 280 280 281 282 284 286 287 288 288 288 288 288 287 287 287 286 286 285 285 285 284 284 285 285 285 285 285 285 285 286 286 286 287 287 288 288 289 289 290
295 295 294 293 292 290 288 287 285 284 283 282 281 280 278 276 274 272 270 270 270 270 270 270 270 270 271 271 271 271 272 274 277 278 279 279 280 280 281 281 280 280 281 281 281 281 280 281 281 283 284 286 287 287 287 287 288 288 288 288 288 287 287 287 287 286 286 286 286 286 287 287 287 287 287 287 287 287 287 287 288 288 289 289 290
Height
3216 3217 3218 3219 3220 3222 3223 3224 3225 3226 3227 3228 3229 3230 3231 3231 3232 3233 3233 3234 3235 3236 3237 3237 3238 3238 3239 3239 3240 3240 3241 3241 3241 3242 3242 3243 3243 3243 3243 3244 3244 3245 3245 3245 3245 3246 3246 3246 3246 3246 3246 3246 3246 3246 3246 3246 3247 3247 3247 3247 3246 3246 3246 3246 3245 3245 3244 3244 3244 3243 3243 3242 3241 3241 3240 3239 3238 3237 3235 3234 3232 3231 3229 3228 3227
3215 3216 3217 3217 3219 3220 3221 3222 3223 3224 3225 3226 3227 3228 3229 3230 3231 3231 3232 3233 3234 3235 3235 3236 3236 3237 3238 3238 3239 3239 3239 3240 3240 3240 3241 3241 3242 3242 3242 3243 3243 3243 3244 3244 3244 3244 3244 3245 3245 3245 3245 3245 3245 3245 3245 3245 3246 3246 3246 3246 3246 3246 3245 3245 3245 3245 3244 3243 3243 3242 3242 3241 3240 3239 3238 3237 3236 3236 3234 3233 3231 3229 3228 3227 3226
3213 3214 3215 3216 3217 3218 3219 3220 3221 3222 3223 3224 3226 3227 3228 3228 3229 3230 3230 3231 3232 3233 3234 3234 3235 3236 3236 3237 3237 3238 3238 3238 3239 3239 3240 3240 3240 3241 3241 3242 3242 3242 3242 3242 3242 3242 3243 3243 3243 3243 3244 3244 3244 3244 3244 3244 3244 3244 3244 3245 3245 3245 3245 3244 3244 3244 3243 3243 3242 3241 3241 3240 3239 3238 3237 3236 3235 3234 3233 3232 3230 3228 3227 3226 3225
3211 3212 3213 3214 3215 3216 3217 3218 3219 3220 3221 3222 3224 3225 3226 3227 3227 3228 3229 3230 3230 3231 3232 3233 3234 3234 3235 3236 3236 3236 3237 3237 3237 3238 3239 3239 3240 3240 3240 3241 3241 3241 3241 3241 3241 3241 3241 3242 3242 3242 3242 3243 3243 3243 3244 3243 3243 3243 3243 3243 3243 3243 3243 3243 3243 3242 3242 3242 3241 3241 3240 3239 3238 3237 3236 3235 3234 3233 3232 3230 3229 3228 3226 3225 3224
3208 3209 3211 3212 3212 3213 3214 3215 3216 3217 3219 3220 3222 3223 3224 3225 3226 3226 3227 3228 3229 3230 3230 3231 3232 3233 3234 3234 3235 3235 3236 3236 3237 3237 3237 3238 3238 3239 3239 3239 3239 3239 3240 3240 3240 3240 3240 3240 3240 3240 3241 3241 3242 3242 3242 3242 3242 3242 3242 3242 3242 3242 3241 3241 3241 3240 3240 3240 3240 3240 3239 3238 3237 3236 3235 3234 3233 3232 3231 3229 3228 3227 3226 3225 3223
3205 3207 3208 3209 3210 3211 3211 3212 3214 3215 3217 3218 3219 3220 3221 3222 3224 3224 3225 3226 3227 3228 3229 3229 3230 3231 3232 3233 3233 3234 3234 3235 3235 3236 3236 3236 3236 3237 3237 3237 3238 3238 3238 3238 3239 3239 3239 3239 3239 3239 3240 3240 3241 3241 3241 3241 3241 3241 3241 3241 3241 3240 3240 3239 3239 3238 3238 3238 3238 3238 3237 3237 3236 3235 3233 3232 3231 3230 3230 3229 3227 3226 3225 3224 3222
3203 3204 3205 3206 3207 3208 3209 3210 3211 3212 3214 3215 3217 3218 3219 3220 3221 3222 3223 3224 3225 3226 3227 3228 3229 3229 3230 3231 3232 3232 3233 3233 3234 3234 3234 3234 3235 3235 3235 3235 3236 3236 3236 3236 3236 3237 3237 3238 3238 3238 3238 3239 3239 3240 3240 3240 3240 3240 3240 3240 3239 3238 3238 3238 3237 3237 3237 3237 3236 3236 3236 3235 3234 3233 3232 3231 3229 3228 3227 3227 3227 3225 3224 3223 3222
3200 3201 3202 3203 3205 3206 3207 3208 3209 3210 3211 3213 3214 3215 3217 3218 3219 3221 3221 3222 3223 3224 3225 3226 3227 3227 3228 3229 3229 3230 3231 3231 3232 3232 3232 3232 3233 3233 3233 3233 3234 3234 3234 3234 3234 3234 3235 3236 3236 3236 3237 3237 3237 3237 3238 3238 3238 3238 3238 3237 3237 3236 3236 3236 3236 3235 3235 3235 3235 3234 3234 3233 3232 3231 3230 3229 3227 3226 3225 3225 3224 3224 3222 3221 3220
3198 3198 3199 3201 3202 3203 3204 3206 3207 3208 3209 3211 3212 3213 3215 3216 3217 3218 3219 3220 3222 3222 3223 3223 3224 3225 3226 3227 3227 3228 3228 3229 3230 3230 3230 3231 3231 3231 3231 3231 3231 3232 3232 3232 3232 3232 3233 3233 3234 3234 3234 3235 3235 3235 3235 3235 3236 3236 3236 3235 3235 3235 3234 3234 3234 3233 3233 3233 3232 3232 3231 3231 3230 3229 3228 3227 3225 3225 3224 3223 3222 3221 3220 3219 3218
3193 3195 3196 3198 3199 3200 3202 3203 3204 3205 3207 3208 3210 3211 3212 3213 3215 3216 3217 3218 3219 3220 3221 3221 3222 3222 3223 3224 3225 3225 3226 3227 3227 3228 3227 3227 3226 3227 3228 3228 3229 3229 3229 3230 3230 3230 3230 3231 3231 3231 3231 3232 3232 3232 3233 3233 3233 3233 3233 3233 3233 3232 3232 3232 3231 3231 3230 3230 3230 3229 3228 3228 3227 3226 3225 3225 3224 3223 3222 3221 3220 3219 3218 3218 3216
3188 3191 3192 3193 3194 3195 3197 3199 3202 3203 3204 3206 3207 3208 3210 3211 3212 3213 3214 3216 3217 3218 3219 3219 3220 3221 3222 3222 3223 3223 3224 3224 3224 3224 3224 3223 3222 3222 3223 3225 3225 3226 3226 3227 3228 3228 3228 3228 3228 3228 3228 3229 3229 3230 3230 3230 3230 3230 3230 3230 3230 3230 3229 3229 3229 3228 3228 3227 3227 3227 3226 3225 3225 3224 3223 3223 3222 3221 3220 3219 3218 3217 3216 3215 3214
3185 3188 3189 3191 3192 3192 3193 3195 3198 3200 3202 3203 3204 3205 3207 3208 3209 3210 3211 3212 3214 3215 3216 3217 3218 3219 3220 3221 3221 3221 3222 3222 3222 3223 3223 3223 3222 3221 3221 3222 3223 3223 3224 3224 3224 3225 3225 3225 3225 3225 3226 3226 3226 3227 3227 3227 3227 3227 3227 3227 3227 3227 3227 3226 3226 3226 3225 3225 3225 3224 3224 3223 3223 3222 3221 3220 3219 3219 3218 3217 3216 3215 3214 3213 3211
3184 3185 3186 3188 3190 3192 3193 3195 3196 3197 3198 3199 3200 3201 3203 3204 3205 3207 3208 3209 3210 3211 3213 3214 3215 3216 3217 3218 3218 3218 3219 3220 3220 3221 3221 3220 3220 3219 3219 3219 3219 3220 3221 3221 3221 3221 3222 3222 3222 3223 3223 3223 3223 3223 3224 3224 3225 3224 3224 3224 3224 3224 3224 3223 3223 3223 3223 3222 3222 3222 3221 3221 3220 3219 3218 3217 3217 3216 3216 3215 3214 3213 3212 3211 3209
3182 3183 3184 3184 3184 3187 3191 3193 3193 3194 3194 3195 3196 3197 3199 3200 3202 3204 3205 3206 3207 3208 3209 3209 3210 3211 3213 3214 3215 3215 3216 3217 3217 3217 3217 3217 3217 3217 3217 3216 3216 3216 3217 3218 3218 3218 3219 3219 3220 3220 3220 3220 3220 3220 3220 3221 3221 3221 3221 3221 3221 3220 3220 3220 3220 3220 3220 3219 3219 3219 3218 3218 3217 3216 3215 3215 3214 3214 3213 3212 3211 3210 3209 3208 3207
3176 3178 3180 3182 3182 3184 3187 3188 3188 3189 3191 3192 3193 3194 3196 3198 3199 3200 3201 3202 3203 3204 3205 3205 3206 3208 3209 3210 3211 3212 3212 3213 3214 3214 3214 3214 3214 3214 3214 3214 3215 3215 3215 3215 3215 3215 3215 3216 3216 3217 3217 3217 3217 3217 3217 3217 3218 3218 3218 3218 3217 3217 3217 3217 3217 3217 3217 3216 3216 3216 3215 3215 3214 3214 3213 3212 3212 3211 3210 3210 3209 3208 3207 3206 3204
3170 3171 3173 3176 3178 3181 3183 3185 3184 3185 3187 3190 3191 3193 3195 3196 3197 3197 3198 3199 3200 3200 3201 3202 3204 3206 3208 3208 3208 3208 3208 3209 3209 3209 3210 3210 3210 3210 3210 3211 3211 3212 3212 3212 3212 3212 3212 3212 3212 3213 3213 3214 3214 3214 3214 3214 3214 3214 3215 3214 3214 3214 3213 3213 3213 3213 3213 3213 3213 3212 3212 3212 3211 3211 3210 3210 3209 3208 3208 3207 3206 3205 3204 3203 3202
3168 3169 3169 3171 3174 3176 3179 3181 3182 3182 3185 3188 3189 3190 3192 3193 3194 3194 3195 3196 3197 3196 3197 3199 3201 3202 3203 3204 3205 3205 3206 3206 3205 3205 3205 3205 3205 3205 3205 3206 3207 3207 3208 3209 3208 3209 3208 3208 3208 3208 3209 3210 3211 3211 3211 3211 3211 3211 3211 3211 3210 3210 3210 3210 3210 3210 3210 3209 3209 3209 3208 3208 3208 3208 3207 3206 3206 3205 3205 3204 3203 3202 3201 3200 3199
3168 3169 3169 3170 3172 3174 3176 3178 3180 3181 3183 3186 3187 3188 3188 3189 3190 3190 3191 3193 3193 3193 3193 3195 3197 3198 3198 3200 3201 3201 3201 3201 3201 3201 3201 3200 3200 3200 3200 3201 3202 3203 3204 3204 3205 3205 3205 3204 3204 3205 3206 3206 3207 3207 3207 3207 3207 3207 3207 3207 3207 3206 3206 3206 3206 3206 3206 3205 3205 3205 3204 3204 3204 3204 3203 3203 3202 3202 3201 3201 3200 3199 3198 3197 3197
3167 3168 3169 3170 3172 3172 3174 3177 3178 3179 3181 3183 3185 3186 3186 3187 3187 3186 3187 3190 3191 3191 3191 3191 3193 3195 3195 3196 3197 3197 3196 3196 3196 3196 3196 3195 3195 3195 3195 3196 3196 3198 3199 3200 3200 3201 3201 3201 3201 3201 3202 3202 3202 3202 3202 3202 3203 3203 3203 3202 3203 3203 3202 3201 3201 3201 3201 3201 3201 3201 3201 3201 3200 3200 3200 3199 3199 3199 3198 3197 3197 3196 3195 3194 3193
3168 3168 3169 3170 3171 3172 3173 3175 3176 3177 3179 3180 3182 3183 3184 3184 3185 3185 3186 3187 3188 3188 3189 3189 3190 3192 3192 3192 3192 3192 3192 3192 3191 3191 3191 3191 3190 3191 3191 3191 3191 3192 3193 3194 3195 3196 3196 3196 3197 3197 3197 3197 3197 3197 3197 3197 3198 3199 3198 3198 3198 3199 3198 3197 3196 3196 3196 3197 3197 3197 3197 3197 3197 3197 3196 3196 3196 3195 3195 3194 3193 3192 3191 3190 3189
3167 3167 3168 3169 3170 3171 3172 3173 3174 3175 3176 3178 3179 3180 3180 3181 3183 3184 3185 3186 3186 3186 3186 3186 3187 3188 3188 3188 3188 3187 3187 3187 3187 3186 3186 3186 3186 3186 3186 3186 3186 3187 3188 3189 3190 3190 3191 3191 3191 3191 3191 3191 3191 3192 3192 3192 3192 3193 3193 3194 3194 3195 3195 3193 3191 3191 3192 3193 3193 3193 3193 3193 3193 3193 3193 3193 3192 3192 3191 3191 3190 3189 3187 3187 3186
3166 3166 3167 3168 3170 3171 3171 3172 3173 3174 3175 3176 3177 3178 3178 3179 3181 3182 3183 3183 3183 3183 3183 3184 3184 3185 3184 3184 3184 3184 3183 3182 3182 3182 3182 3182 3182 3181 3181 3182 3183 3183 3183 3184 3184 3185 3185 3185 3185 3185 3185 3185 3185 3185 3185 3186 3186 3186 3188 3189 3190 3190 3190 3188 3187 3187 3188 3189 3189 3189 3189 3189 3190 3190 3190 3189 3189 3188 3188 3187 3186 3185 3184 3183 3183
3164 3165 3166 3167 3168 3169 3170 3170 3171 3171 3172 3174 3175 3176 3178 3178 3179 3180 3180 3180 3180 3179 3179 3179 3180 3180 3180 3180 3180 3179 3179 3178 3178 3178 3178 3178 3178 3177 3177 3178 3179 3179 3178 3178 3179 3179 3179 3179 3179 3179 3179 3179 3177 3177 3179 3181 3182 3181 3182 3183 3184 3184 3184 3183 3183 3183 3184 3185 3185 3186 3186 3186 3186 3186 3186 3186 3185 3184 3183 3183 3182 3181 3180 3180 3180
3164 3165 3165 3166 3166 3166 3167 3167 3168 3168 3169 3170 3171 3172 3174 3175 3176 3177 3177 3177 3176 3176 3176 3175 3176 3176 3176 3176 3175 3175 3175 3175 3175 3174 3174 3173 3174 3174 3173 3173 3174 3174 3174 3174 3174 3174 3173 3173 3173 3173 3174 3173 3170 3168 3171 3176 3176 3176 3176 3176 3177 3178 3178 3178 3179 3179 3180 3181 3181 3182 3182 3182 3183 3183 3182 3182 3181 3180 3179 3179 3178 3177 3177 3176 3176
3163 3164 3164 3165 3165 3165 3165 3165 3165 3166 3166 3166 3167 3168 3169 3171 3172 3173 3173 3173 3173 3172 3172 3172 3172 3172 3173 3172 3172 3171 3171 3171 3171 3170 3170 3169 3169 3169 3169 3169 3169 3169 3170 3170 3170 3169 3169 3169 3169 3168 3168 3168 3166 3165 3167 3169 3170 3171 3172 3172 3172 3172 3172 3173 3174 3174 3175 3176 3177 3177 3178 3179 3179 3179 3178 3177 3177 3176 3175 3174 3173 3173 3173 3172 3172
3162 3163 3163 3163 3163 3163 3163 3163 3163 3164 3164 3165 3165 3165 3166 3167 3168 3169 3170 3170 3169 3169 3169 3169 3169 3169 3169 3168 3168 3168 3168 3168 3167 3167 3167 3166 3166 3165 3165 3166 3166 3166 3166 3166 3166 3166 3165 3165 3165 3164 3164 3164 3163 3163 3165 3167 3168 3168 3168 3168 3168 3168 3168 3169 3170 3171 3171 3172 3173 3173 3174 3174 3175 3174 3174 3173 3173 3171 3170 3169 3169 3169 3168 3168 3168
3161 3161 3162 3162 3162 3162 3162 3162 3162 3162 3163 3163 3163 3163 3164 3164 3165 3166 3167 3167 3167 3166 3166 3166 3166 3166 3166 3166 3165 3165 3165 3164 3164 3163 3163 3163 3163 3163 3162 3162 3163 3163 3163 3163 3163 3163 3162 3162 3161 3161 3160 3160 3160 3160 3161 3163 3164 3164 3164 3163 3163 3163 3163 3164 3166 3166 3167 3168 3169 3169 3170 3170 3170 3170 3170 3169 3168 3167 3166 3166 3165 3165 3165 3165 3164
3160 3160 3160 3161 3161 3161 3161 3161 3161 3161 3161 3161 3162 3162 3162 3162 3163 3163 3164 3164 3164 3164 3164 3163 3163 3163 3163 3163 3163 3163 3162 3162 3161 3161 3160 3160 3160 3160 3159 3159 3159 3159 3159 3159 3159 3160 3159 3159 3158 3158 3157 3157 3157 3157 3158 3158 3159 3159 3159 3159 3158 3158 3158 3159 3160 3161 3163 3164 3165 3165 3166 3165 3165 3165 3165 3165 3164 3163 3163 3163 3162 3162 3162 3161 3161
3160 3160 3160 3160 3160 3160 3160 3160 3160 3160 3160 3160 3160 3161 3161 3161 3161 3161 3161 3161 3161 3161 3161 3161 3161 3161 3161 3160 3160 3160 3160 3160 3159 3158 3158 3158 3157 3157 3157 3157 3157 3156 3156 3156 3156 3156 3156 3156 3156 3155 3155 3154 3154 3155 3155 3155 3155 3155 3155 3154 3154 3154 3155 3156 3157 3158 3159 3160 3161 3161 3161 3161 3161 3161 3161 3161 3161 3160 3160 3159 3159 3158 3158 3158 3158
3160 3160 3159 3159 3159 3159 3159 3159 3159 3160 3160 3159 3159 3160 3160 3160 3160 3160 3160 3160 3160 3160 3160 3159 3159 3159 3159 3158 3158 3158 3157 3157 3157 3156 3156 3156 3155 3155 3155 3154 3154 3154 3153 3153 3153 3153 3153 3153 3153 3153 3152 3152 3152 3152 3152 3152 3152 3152 3152 3152 3152 3152 3153 3153 3154 3155 3155 3156 3156 3157 3157 3157 3158 3158 3158 3157 3157 3157 3157 3156 3156 3155 3155 3154 3154
3159 3159 3159 3159 3158 3158 3158 3158 3158 3158 3158 3158 3158 3158 3158 3158 3158 3158 3158 3158 3158 3158 3158 3158 3158 3158 3158 3157 3157 3156 3156 3155 3155 3154 3154 3154 3153 3153 3153 3153 3152 3152 3151 3150 3150 3150 3150 3150 3150 3150 3149 3149 3149 3149 3149 3149 3149 3149 3149 3149 3149 3149 3150 3150 3151 3151 3152 3152 3152 3153 3153 3153 3154 3154 3154 3154 3154 3153 3153 3153 3153 3152 3152 3151 3150
3158 3158 3158 3158 3158 3157 3157 3157 3157 3157 3157 3157 3157 3157 3157 3157 3157 3157 3157 3157 3157 3157 3157 3157 3157 3157 3157 3156 3156 3155 3154 3154 3153 3153 3152 3152 3151 3151 3150 3150 3150 3149 3149 3148 3148 3148 3148 3148 3148 3148 3147 3146 3146 3146 3146 3146 3146 3147 3147 3147 3147 3147 3147 3148 3148 3148 3149 3149 3149 3149 3149 3149 3150 3150 3150 3150 3150 3149 3149 3149 3149 3149 3148 3147 3146
3157 3157 3157 3156 3156 3156 3156 3156 3156 3156 3155 3156 3156 3156 3156 3156 3156 3156 3156 3155 3155 3155 3155 3156 3156 3156 3156 3155 3155 3154 3153 3153 3152 3151 3151 3150 3149 3149 3148 3148 3148 3147 3147 3146 3146 3146 3145 3145 3146 3146 3145 3145 3144 3144 3144 3144 3144 3144 3145 3145 3145 3145 3145 3145 3145 3146 3146 3146 3146 3146 3146 3146 3146 3146 3146 3146 3146 3145 3145 3145 3145 3144 3144 3143 3142
3156 3156 3155 3155 3154 3154 3154 3154 3154 3154 3154 3154 3154 3154 3154 3154 3154 3154 3154 3154 3154 3153 3153 3153 3153 3153 3154 3153 3153 3152 3152 3151 3150 3150 3149 3148 3148 3147 3146 3146 3145 3145 3145 3144 3144 3144 3143 3143 3143 3143 3143 3143 3143 3143 3142 3142 3142 3142 3142 3143 3143 3143 3143 3142 3142 3142 3142 3142 3142 3142 3142 3142 3142 3142 3142 3142 3142 3141 3141 3141 3140 3140 3139 3139 3138
3153 3153 3153 3153 3152 3152 3152 3152 3152 3152 3152 3152 3152 3152 3152 3152 3152 3152 3152 3152 3152 3151 3151 3151 3150 3150 3150 3150 3150 3149 3149 3148 3148 3147 3147 3146 3146 3145 3144 3144 3143 3143 3142 3142 3142 3142 3141 3141 3140 3140 3140 3141 3141 3141 3140 3140 3140 3139 3139 3139 3140 3140 3140 3139 3139 3139 3138 3138 3138 3138 3138 3137 3137 3137 3137 3137 3137 3137 3137 3136 3136 3135 3135 3134 3133
3150 3150 3150 3150 3150 3150 3150 3150 3150 3150 3150 3150 3149 3150 3150 3150 3149 3149 3149 3149 3149 3149 3149 3148 3148 3147 3147 3148 3147 3146 3146 3145 3145 3144 3144 3143 3143 3143 3142 3142 3141 3141 3140 3140 3139 3139 3139 3138 3138 3138 3138 3138 3138 3138 3138 3138 3138 3138 3137 3137 3136 3136 3136 3135 3135 3135 3134 3134 3134 3134 3134 3134 3133 3133 3133 3133 3133 3133 3132 3132 3131 3131 3130 3129 3129
3146 3146 3146 3146 3146 3146 3147 3147 3147 3147 3147 3147 3147 3147 3147 3147 3147 3147 3147 3146 3146 3146 3146 3145 3145 3144 3144 3144 3144 3143 3143 3143 3142 3141 3141 3140 3140 3140 3140 3139 3139 3139 3138 3138 3137 3137 3136 3136 3136 3136 3136 3136 3136 3136 3136 3135 3136 3136 3135 3135 3134 3133 3133 3132 3132 3131 3131 3131 3131 3131 3130 3130 3130 3129 3129 3129 3128 3128 3128 3127 3127 3126 3125 3125 3124
3143 3143 3143 3143 3143 3143 3143 3143 3143 3143 3144 3144 3144 3144 3144 3144 3144 3143 3143 3143 3143 3143 3142 3142 3141 3141 3140 3140 3140 3140 3140 3139 3139 3138 3138 3138 3137 3137 3137 3136 3136 3136 3135 3135 3135 3135 3134 3134 3133 3133 3133 3133 3133 3133 3133 3133 3133 3133 3133 3133 3132 3131 3130 3130 3129 3129 3128 3128 3128 3127 3127 3127 3126 3126 3125 3124 3124 3123 3123 3123 3122 3122 3121 3120 3119
3139 3139 3139 3139 3139 3139 3139 3139 3139 3140 3140 3140 3140 3140 3141 3141 3141 3140 3140 3140 3139 3139 3138 3138 3138 3138 3137 3137 3137 3137 3136 3136 3135 3135 3135 3134 3134 3134 3133 3133 3133 3132 3132 3132 3131 3131 3131 3131 3130 3130 3130 3130 3130 3129 3129 3129 3129 3129 3129 3129 3129 3128 3127 3126 3126 3126 3125 3125 3124 3124 3123 3123 3122 3121 3121 3120 3119 3119 3119 3118 3117 3117 3116 3115 3115
3136 3136 3136 3136 3136 3135 3135 3135 3135 3135 3135 3135 3136 3136 3136 3137 3137 3137 3137 3137 3136 3136 3135 3135 3134 3134 3134 3134 3134 3133 3133 3132 3132 3132 3131 3131 3130 3130 3130 3129 3129 3129 3128 3128 3127 3127 3127 3126 3126 3126 3126 3126 3126 3126 3125 3125 3124 3124 3124 3124 3124 3123 3123 3122 3122 3122 3121 3121 3120 3120 3119 3118 3118 3117 3116 3115 3115 3114 3114 3113 3113 3112 3111 3110 3110
3132 3132 3132 3132 3132 3131 3131 3131 3131 3131 3131 3131 3131 3132 3132 3132 3132 3132 3132 3132 3132 3132 3132 3132 3131 3131 3130 3130 3130 3129 3129 3129 3128 3128 3128 3127 3127 3126 3126 3126 3125 3125 3124 3124 3123 3123 3122 3122 3122 3121 3121 3121 3121 3121 3121 3120 3120 3120 3120 3119 3119 3118 3118 3117 3117 3117 3117 3117 3116 3115 3114 3114 3113 3112 3111 3111 3110 3110 3109 3108 3108 3107 3106 3105 3104
3128 3128 3128 3127 3127 3127 3127 3127 3127 3127 3127 3127 3127 3127 3127 3127 3127 3128 3128 3128 3128 3128 3128 3128 3127 3127 3127 3126 3126 3125 3125 3125 3124 3124 3123 3123 3123 3122 3122 3121 3121 3121 3120 3120 3119 3119 3118 3118 3117 3117 3117 3116 3116 3115 3115 3115 3115 3115 3114 3114 3114 3113 3113 3112 3112 3112 3112 3112 3111 3111 3110 3109 3108 3107 3107 3106 3106 3105 3105 3104 3103 3102 3101 3100 3099
3123 3123 3123 3123 3122 3122 3122 3122 3122 3123 3123 3123 3123 3123 3123 3123 3123 3123 3123 3123 3123 3123 3123 3123 3122 3122 3122 3122 3122 3121 3121 3120 3120 3119 3119 3118 3118 3118 3117 3117 3117 3116 3116 3115 3115 3115 3114 3114 3113 3113 3112 3112 3111 3111 3111 3110 3110 3109 3109 3109 3108 3108 3107 3107 3107 3107 3107 3107 3106 3106 3105 3104 3103 3102 3102 3101 3101 3100 3100 3099 3098 3097 3096 3095 3094
3119 3119 3118 3118 3118 3118 3118 3118 3118 3118 3118 3118 3118 3119 3119 3119 3119 3119 3119 3118 3118 3118 3118 3118 3117 3117 3117 3117 3116 3116 3116 3115 3115 3114 3114 3113 3113 3113 3112 3112 3112 3112 3111 3111 3110 3110 3110 3109 3109 3108 3108 3107 3107 3107 3106 3106 3105 3105 3104 3104 3103 3103 3102 3102 3101 3101 3101 3101 3100 3100 3099 3098 3098 3097 3096 3096 3095 3095 3094 3093 3093 3092 3091 3090 3089
3115 3114 3114 3114 3114 3114 3114 3113 3113 3113 3113 3114 3114 3114 3114 3114 3114 3114 3114 3114 3113 3113 3113 3113 3113 3112 3112 3111 3111 3111 3110 3109 3109 3109 3108 3108 3108 3107 3107 3107 3107 3107 3106 3106 3106 3105 3105 3105 3104 3104 3103 3103 3102 3102 3102 3101 3101 3100 3100 3099 3098 3098 3097 3097 3096 3095 3095 3095 3094 3094 3094 3093 3092 3092 3091 3090 3090 3089 3088 3088 3087 3086 3085 3084 3083
3111 3110 3110 3110 3110 3109 3109 3109 3109 3109 3109 3109 3109 3109 3109 3109 3109 3109 3109 3109 3108 3108 3108 3108 3108 3107 3107 3107 3106 3105 3105 3104 3104 3103 3103 3103 3102 3102 3102 3102 3101 3101 3101 3101 3101 3100 3100 3100 3100 3099 3099 3098 3098 3097 3097 3096 3096 3095 3095 3094 3094 3093 3092 3092 3091 3090 3090 3089 3089 3088 3088 3087 3087 3086 3085 3085 3084 3083 3082 3082 3081 3080 3080 3079 3078
3107 3107 3107 3106 3106 3106 3106 3105 3105 3105 3105 3105 3105 3105 3105 3105 3104 3104 3104 3104 3104 3104 3103 3103 3103 3103 3102 3102 3101 3101 3100 3100 3099 3099 3098 3097 3097 3097 3097 3096 3096 3096 3096 3095 3095 3095 3095 3095 3094 3094 3093 3093 3093 3092 3092 3091 3091 3090 3089 3089 3088 3088 3087 3087 3086 3085 3085 3084 3084 3083 3083 3082 3081 3080 3080 3079 3078 3078 3077 3076 3075 3075 3074 3073 3072
3104 3104 3104 3103 3103 3103 3102 3102 3102 3102 3101 3101 3101 3101 3101 3101 3101 3101 3101 3101 3100 3099 3099 3099 3099 3098 3098 3098 3097 3096 3096 3095 3095 3094 3094 3093 3093 3092 3092 3091 3091 3090 3090 3090 3090 3090 3090 3089 3089 3089 3088 3088 3087 3087 3086 3086 3085 3085 3084 3083 3083 3082 3082 3081 3081 3080 3079 3079 3078 3078 3077 3076 3075 3075 3074 3073 3073 3072 3071 3070 3070 3069 3068 3067 3066
3101 3101 3100 3100 3099 3099 3099 3099 3098 3098 3098 3097 3097 3097 3097 3097 3097 3096 3096 3096 3096 3095 3095 3095 3095 3095 3094 3094 3093 3092 3092 3091 3090 3090 3089 3088 3088 3087 3087 3087 3086 3085 3085 3085 3084 3084 3084 3084 3083 3083 3083 3082 3082 3081 3081 3080 3080 3079 3079 3078 3077 3077 3076 3076 3075 3075 3074 3073 3073 3072 3071 3070 3070 3069 3068 3067 3067 3066 3065 3065 3064 3063 3062 3061 3060
3098 3097 3097 3096 3096 3096 3095 3095 3095 3094 3094 3094 3093 3093 3093 3093 3092 3092 3092 3091 3091 3091 3091 3091 3091 3090 3090 3090 3089 3088 3088 3087 3086 3086 3085 3084 3083 3083 3082 3082 3081 3080 3080 3079 3079 3079 3079 3078 3078 3078 3077 3076 3076 3075 3075 3075 3074 3073 3073 3072 3072 3071 3070 3070 3069 3069 3068 3067 3067 3066 3065 3064 3064 3063 3062 3062 3061 3061 3060 3059 3058 3058 3057 3056 3055
3095 3094 3093 3093 3092 3092 3092 3091 3091 3090 3090 3090 3089 3089 3089 3088 3088 3088 3087 3087 3087 3087 3087 3086 3086 3086 3086 3085 3085 3084 3083 3082 3082 3081 3081 3080 3079 3078 3077 3076 3076 3075 3075 3074 3074 3074 3073 3073 3073 3072 3072 3071 3070 3070 3069 3069 3069 3068 3067 3067 3066 3065 3065 3064 3064 3063 3063 3062 3061 3060 3060 3059 3058 3058 3057 3056 3056 3055 3055 3054 3053 3052 3052 3051 3050